Location: Middle Street
(51.7167°N, 0.0333°E)
Time: 20:00:51
(UTC+00:00)

ATLAS 2AS CENTAUR R/B - Pass Details

Date: 20 January 2021
Orbit: 947 x 1265 km, 63.7° (Epoch: 13 February)

Event Time Altitude Azimuth Distance (km) Brightness Sun altitude
Rises 18:08:46 0° 248° (WSW) 4,216 7.6 -15.2°
Reaches altitude 10° 18:11:41 10° 253° (WSW) 3,252 6.6 -15.6°
Maximum altitude 18:19:23 53° 329° (NNW) 1,510 3.6 -16.8°
Enters shadow 18:25:29 16° 41° (NE) 2,716 4.4 -17.7°
